User: anonymous   Login
Location: Caltech
(34.1382°N, 118.1253°W)
Time: 07:31:15
(UTC-07:00)
Language:

Cosmos 1484 Rocket - Orbit

View from above orbital plane
View from above orbital plane
View from above satellite
View from above satellite

Ground track
Ground track

The orbit data is extracted from the following two-line orbital elements,

1 14208U 83075B   15245.94378442 +.00000947 +00000-0 +62521-4 0  9996
2 14208 097.3803 271.5595 0039548 220.9250 138.9009 15.09184054748635
Epoch (UTC): 02 September 2015 22:39:02
Eccentricity: 0.0039548
inclination: 97.3803°
perigee height: 511 km
apogee height: 566 km
right ascension of ascending node: 271.5595°
argument of perigee: 220.9250°
revolutions per day: 15.09184054
mean anomaly at epoch: 138.9009°
orbit number at epoch: 74863

The dashed part of the orbit path shows where the satellite is in the earth's shadow,  

DLR